TimeWET,TemperatureF,Dew PointF,Humidity,Sea Level PressureIn,VisibilityMPH,Wind Direction,Wind SpeedMPH,Gust SpeedMPH,PrecipitationIn,Events,Conditions,WindDirDegrees,DateUTC
12:00 AM,53.6,48.2,82,30.09,6.2,West,4.6,-,N/A,,Partly Cloudy,280,2012-10-22 00:00:00
2:00 AM,51.8,46.4,82,30.09,6.2,Variable,2.3,-,N/A,,Partly Cloudy,0,2012-10-22 02:00:00
3:00 AM,52,47,77,30.10,9,WSW,2.3,,,,Scattered Clouds,240,2012-10-22 03:00:00
3:00 AM,51.8,46.4,82,30.09,6.2,Variable,2.3,-,N/A,,Partly Cloudy,0,2012-10-22 03:00:00
4:00 AM,51.8,46.4,82,30.09,6.2,Variable,2.3,-,N/A,,Partly Cloudy,0,2012-10-22 04:00:00
6:00 AM,54,47,71,30.12,9,SW,9.2,,,,Scattered Clouds,220,2012-10-22 06:00:00
6:00 AM,53.6,48.2,82,30.09,6.2,SW,9.2,-,N/A,,Partly Cloudy,220,2012-10-22 06:00:00
7:00 AM,55.4,48.2,77,30.12,6.2,Calm,Calm,-,N/A,,Partly Cloudy,0,2012-10-22 07:00:00
9:00 AM,66,52,50,30.11,9,SE,2.3,,,,Clear,140,2012-10-22 09:00:00
9:00 AM,66.2,51.8,60,30.15,-9999.0,Variable,2.3,-,N/A,,Clear,0,2012-10-22 09:00:00
10:00 AM,68.0,51.8,56,30.12,-9999.0,East,3.5,-,N/A,,Clear,100,2012-10-22 10:00:00
11:00 AM,73.4,51.8,47,30.12,-9999.0,Variable,2.3,-,N/A,,Clear,0,2012-10-22 11:00:00
12:00 PM,75.2,53.6,47,30.09,-9999.0,Variable,2.3,-,N/A,,Clear,0,2012-10-22 12:00:00
1:00 PM,77.0,51.8,41,30.06,-9999.0,West,3.5,-,N/A,,Clear,280,2012-10-22 13:00:00
2:00 PM,77.0,51.8,41,30.06,6.2,North,5.8,-,N/A,,Scattered Clouds,360,2012-10-22 14:00:00
3:00 PM,78,53,32,29.99,9,NE,5.8,,,,Scattered Clouds,40,2012-10-22 15:00:00
3:00 PM,77.0,53.6,44,30.06,6.2,NE,5.8,-,N/A,,Scattered Clouds,40,2012-10-22 15:00:00
4:00 PM,77.0,53.6,44,30.06,6.2,NNE,4.6,-,N/A,,Scattered Clouds,20,2012-10-22 16:00:00
5:00 PM,75.2,55.4,50,30.06,6.2,East,8.1,-,N/A,,Scattered Clouds,90,2012-10-22 17:00:00
6:00 PM,69,56,54,30.03,9,East,5.8,,,,Scattered Clouds,80,2012-10-22 18:00:00
6:00 PM,69.8,55.4,60,30.06,6.2,East,5.8,-,N/A,,Scattered Clouds,80,2012-10-22 18:00:00
7:00 PM,66.2,55.4,68,30.09,-9999.0,NW,3.5,-,N/A,,Clear,310,2012-10-22 19:00:00
8:00 PM,62.6,55.4,77,30.09,-9999.0,WSW,4.6,-,N/A,,Clear,240,2012-10-22 20:00:00
9:00 PM,61,56,77,30.09,9,WSW,3.5,,,,Clear,240,2012-10-22 21:00:00
9:00 PM,60.8,55.4,82,30.12,-9999.0,WSW,3.5,-,N/A,,Clear,240,2012-10-22 21:00:00
10:00 PM,59.0,55.4,88,30.12,-9999.0,SW,6.9,-,N/A,,Clear,220,2012-10-22 22:00:00
11:00 PM,57.2,53.6,88,30.09,-9999.0,SW,5.8,-,N/A,,Clear,230,2012-10-22 23:00:00